Вернуться в каталог

COSMOS 858

АктивенВоенныеLEO
NORAD 9443·PAYLOAD·🇷🇺 Russia

Запущен Sep 29, 1976 с Plesetsk Cosmodrome

Loading…

Ближайшие Пролёты (ближайшие 24 часа)

TLE

СвежийSource: Space-Track

Эпоха: Sep 13, 2026, 20:28 UTC

1  9443U 76098A   26256.85328508  .00000090  00000-0  40477-4 0  9995
2  9443  74.0519 355.7566 0012711  92.9349 267.3259 14.35148483611477

Отслеживайте COSMOS 858 в реальном времени с AllMySat

Download on the App Store